Time,TemperatureF,DewpointF,PressureIn,WindDirection,WindDirectionDegrees,WindSpeedMPH,WindSpeedGustMPH,Humidity,HourlyPrecipIn,Conditions,Clouds,dailyrainin,SoftwareType,DateUTC
2013-09-16 00:02:00,61.7,58.1,29.49,NE,40,5.0,11.0,88,0.00,,,0.02,meteohub,2013-09-16 05:02:00,
2013-09-16 00:07:00,61.7,58.5,29.49,North,5,4.0,11.0,89,0.00,,,0.02,meteohub,2013-09-16 05:07:00,
2013-09-16 00:12:00,61.5,58.3,29.49,NE,35,3.0,11.0,89,0.00,,,0.02,meteohub,2013-09-16 05:12:00,
2013-09-16 00:17:00,61.5,58.3,29.49,NNE,19,6.0,13.0,89,0.00,,,0.02,meteohub,2013-09-16 05:17:00,
2013-09-16 00:22:00,61.5,58.3,29.49,NE,55,7.0,13.0,89,0.00,,,0.02,meteohub,2013-09-16 05:22:00,
2013-09-16 00:27:00,61.5,58.3,29.49,ENE,61,5.0,12.0,89,0.00,,,0.02,meteohub,2013-09-16 05:27:00,
2013-09-16 00:32:00,61.3,57.7,29.49,NE,34,6.0,14.0,88,0.00,,,0.02,meteohub,2013-09-16 05:32:00,
2013-09-16 00:37:00,61.3,57.7,29.49,NE,38,3.0,14.0,88,0.00,,,0.02,meteohub,2013-09-16 05:37:00,
2013-09-16 00:42:00,61.3,57.7,29.49,NNW,343,6.0,13.0,88,0.00,,,0.02,meteohub,2013-09-16 05:42:00,
2013-09-16 00:47:00,61.3,57.7,29.50,NNE,22,5.0,12.0,88,0.00,,,0.02,meteohub,2013-09-16 05:47:00,
2013-09-16 00:52:00,61.3,57.7,29.50,NE,42,3.0,10.0,88,0.00,,,0.02,meteohub,2013-09-16 05:52:00,
2013-09-16 00:57:00,61.3,57.4,29.50,ENE,59,0.0,10.0,87,0.00,,,0.02,meteohub,2013-09-16 05:57:00,
2013-09-16 01:02:00,61.3,57.4,29.50,NNE,32,3.0,10.0,87,0.00,,,0.02,meteohub,2013-09-16 06:02:00,
2013-09-16 01:07:00,61.3,57.4,29.50,NNE,13,5.0,10.0,87,0.00,,,0.02,meteohub,2013-09-16 06:07:00,
2013-09-16 01:12:00,61.2,57.2,29.50,NE,40,4.0,10.0,87,0.00,,,0.02,meteohub,2013-09-16 06:12:00,
2013-09-16 01:17:00,61.2,57.2,29.50,NNE,18,0.0,11.0,87,0.00,,,0.02,meteohub,2013-09-16 06:17:00,
2013-09-16 01:22:00,61.0,56.8,29.50,NE,48,7.0,12.0,86,0.00,,,0.02,meteohub,2013-09-16 06:22:00,
2013-09-16 01:27:00,61.0,56.8,29.50,ENE,59,6.0,12.0,86,0.00,,,0.02,meteohub,2013-09-16 06:27:00,
2013-09-16 01:32:00,60.8,56.3,29.51,NE,50,0.0,12.0,85,0.00,,,0.02,meteohub,2013-09-16 06:32:00,
2013-09-16 01:37:00,60.6,56.1,29.50,ENE,65,4.0,11.0,85,0.00,,,0.02,meteohub,2013-09-16 06:37:00,
2013-09-16 01:42:00,60.4,55.9,29.51,NNE,16,6.0,11.0,85,0.00,,,0.02,meteohub,2013-09-16 06:42:00,
2013-09-16 01:47:00,60.4,55.9,29.51,NE,50,3.0,11.0,85,0.00,,,0.02,meteohub,2013-09-16 06:47:00,
2013-09-16 01:52:00,60.3,55.8,29.50,ENE,71,7.0,11.0,85,0.00,,,0.02,meteohub,2013-09-16 06:52:00,
2013-09-16 01:57:00,60.1,55.6,29.51,NE,52,2.0,12.0,85,0.00,,,0.02,meteohub,2013-09-16 06:57:00,
2013-09-16 02:02:00,60.1,55.6,29.51,NNE,24,6.0,12.0,85,0.00,,,0.02,meteohub,2013-09-16 07:02:00,
2013-09-16 02:07:00,59.7,55.2,29.51,NE,51,5.0,12.0,85,0.00,,,0.02,meteohub,2013-09-16 07:07:00,
2013-09-16 02:13:00,59.7,55.2,29.51,ENE,74,4.0,10.0,85,0.00,,,0.02,meteohub,2013-09-16 07:13:00,
2013-09-16 02:18:00,59.5,55.4,29.51,NNE,25,0.0,9.0,86,0.00,,,0.02,meteohub,2013-09-16 07:18:00,
2013-09-16 02:23:00,59.5,55.4,29.51,NE,38,2.0,9.0,86,0.00,,,0.02,meteohub,2013-09-16 07:23:00,
2013-09-16 02:28:00,59.5,55.4,29.50,NE,55,1.0,8.0,86,0.00,,,0.02,meteohub,2013-09-16 07:28:00,
2013-09-16 02:33:00,59.4,55.2,29.51,NE,36,4.0,9.0,86,0.00,,,0.02,meteohub,2013-09-16 07:33:00,
2013-09-16 02:38:00,59.4,55.2,29.50,NE,37,6.0,11.0,86,0.00,,,0.02,meteohub,2013-09-16 07:38:00,
2013-09-16 02:43:00,59.2,55.4,29.50,NE,51,6.0,11.0,87,0.00,,,0.02,meteohub,2013-09-16 07:43:00,
2013-09-16 02:48:00,59.0,55.2,29.51,NE,48,3.0,11.0,87,0.00,,,0.02,meteohub,2013-09-16 07:48:00,
2013-09-16 02:53:00,58.8,55.0,29.51,ENE,75,0.0,10.0,87,0.00,,,0.02,meteohub,2013-09-16 07:53:00,
2013-09-16 02:58:00,58.6,54.9,29.50,ENE,59,0.0,10.0,87,0.00,,,0.02,meteohub,2013-09-16 07:58:00,
2013-09-16 03:03:00,58.6,55.0,29.51,ENE,62,2.0,10.0,88,0.00,,,0.02,meteohub,2013-09-16 08:03:00,
2013-09-16 03:08:00,58.5,54.9,29.51,NE,40,6.0,9.0,88,0.00,,,0.02,meteohub,2013-09-16 08:08:00,
2013-09-16 03:13:00,58.3,54.7,29.51,NE,53,2.0,9.0,88,0.00,,,0.02,meteohub,2013-09-16 08:13:00,
2013-09-16 03:18:00,58.3,54.7,29.50,NE,50,5.0,8.0,88,0.00,,,0.02,meteohub,2013-09-16 08:18:00,
2013-09-16 03:23:00,58.1,54.5,29.50,NE,56,2.0,8.0,88,0.00,,,0.02,meteohub,2013-09-16 08:23:00,
2013-09-16 03:28:00,58.1,54.9,29.51,NE,56,0.0,7.0,89,0.00,,,0.02,meteohub,2013-09-16 08:28:00,
2013-09-16 03:33:00,57.9,54.7,29.51,NE,50,0.0,6.0,89,0.00,,,0.02,meteohub,2013-09-16 08:33:00,
2013-09-16 03:38:00,57.9,54.7,29.52,NE,37,0.0,5.0,89,0.00,,,0.02,meteohub,2013-09-16 08:38:00,
2013-09-16 03:43:00,57.7,54.5,29.52,NE,49,0.0,5.0,89,0.00,,,0.02,meteohub,2013-09-16 08:43:00,
2013-09-16 03:48:00,57.7,54.5,29.52,NE,37,0.0,5.0,89,0.00,,,0.02,meteohub,2013-09-16 08:48:00,
2013-09-16 03:53:00,57.7,54.5,29.52,NE,37,0.0,5.0,89,0.00,,,0.02,meteohub,2013-09-16 08:53:00,
2013-09-16 03:58:00,57.6,54.7,29.53,NNE,29,0.0,5.0,90,0.00,,,0.02,meteohub,2013-09-16 08:58:00,
2013-09-16 04:03:00,57.6,54.7,29.53,NNE,29,0.0,5.0,90,0.00,,,0.02,meteohub,2013-09-16 09:03:00,
2013-09-16 04:08:00,57.6,54.7,29.53,NNE,29,0.0,5.0,90,0.00,,,0.02,meteohub,2013-09-16 09:08:00,
2013-09-16 04:13:00,57.6,54.7,29.53,NNE,29,0.0,2.0,90,0.00,,,0.02,meteohub,2013-09-16 09:13:00,
2013-09-16 04:18:00,57.7,54.9,29.53,NNE,29,0.0,0.0,90,0.00,,,0.02,meteohub,2013-09-16 09:18:00,
2013-09-16 04:23:00,57.7,54.9,29.54,NNE,32,0.0,1.0,90,0.00,,,0.02,meteohub,2013-09-16 09:23:00,
2013-09-16 04:28:00,57.7,54.9,29.54,NE,51,3.0,3.0,90,0.00,,,0.02,meteohub,2013-09-16 09:28:00,
2013-09-16 04:33:00,57.7,54.9,29.54,NE,34,3.0,4.0,90,0.00,,,0.02,meteohub,2013-09-16 09:33:00,
2013-09-16 04:38:00,57.9,55.0,29.54,ENE,78,0.0,6.0,90,0.00,,,0.02,meteohub,2013-09-16 09:38:00,
2013-09-16 04:43:00,58.1,55.2,29.54,ENE,59,0.0,6.0,90,0.00,,,0.02,meteohub,2013-09-16 09:43:00,
2013-09-16 04:48:00,58.1,54.9,29.54,NE,55,0.0,6.0,89,0.00,,,0.02,meteohub,2013-09-16 09:48:00,
2013-09-16 04:53:00,58.3,55.0,29.54,NE,53,0.0,6.0,89,0.00,,,0.02,meteohub,2013-09-16 09:53:00,
2013-09-16 04:58:00,58.3,55.0,29.54,NE,53,0.0,4.0,89,0.00,,,0.02,meteohub,2013-09-16 09:58:00,
2013-09-16 05:03:00,58.3,55.0,29.54,NE,48,0.0,4.0,89,0.00,,,0.02,meteohub,2013-09-16 10:03:00,
2013-09-16 05:08:00,58.3,55.0,29.54,NE,56,0.0,4.0,89,0.00,,,0.02,meteohub,2013-09-16 10:08:00,
2013-09-16 05:13:00,58.3,55.0,29.54,NE,35,1.0,4.0,89,0.00,,,0.02,meteohub,2013-09-16 10:13:00,
2013-09-16 05:18:00,58.5,54.9,29.55,East,90,0.0,6.0,88,0.00,,,0.02,meteohub,2013-09-16 10:18:00,
2013-09-16 05:23:00,58.5,54.9,29.55,ENE,69,0.0,6.0,88,0.00,,,0.02,meteohub,2013-09-16 10:23:00,
2013-09-16 05:28:00,58.5,54.9,29.55,ENE,71,0.0,6.0,88,0.00,,,0.02,meteohub,2013-09-16 10:28:00,
2013-09-16 05:33:00,58.5,54.9,29.55,ENE,64,3.0,6.0,88,0.00,,,0.02,meteohub,2013-09-16 10:33:00,
2013-09-16 05:38:00,58.5,54.9,29.55,ENE,72,3.0,8.0,88,0.00,,,0.02,meteohub,2013-09-16 10:38:00,
2013-09-16 05:43:00,58.5,54.9,29.55,ENE,66,8.0,8.0,88,0.00,,,0.02,meteohub,2013-09-16 10:43:00,
2013-09-16 05:48:00,58.5,54.9,29.55,ENE,69,7.0,10.0,88,0.00,,,0.02,meteohub,2013-09-16 10:48:00,
2013-09-16 05:53:00,58.5,54.9,29.55,ENE,76,0.0,14.0,88,0.00,,,0.02,meteohub,2013-09-16 10:53:00,
2013-09-16 05:58:00,58.5,54.9,29.55,East,79,0.0,14.0,88,0.00,,,0.02,meteohub,2013-09-16 10:58:00,
2013-09-16 06:03:00,58.5,54.9,29.55,ENE,62,3.0,12.0,88,0.00,,,0.02,meteohub,2013-09-16 11:03:00,
2013-09-16 06:08:00,58.5,54.9,29.55,NE,50,4.0,10.0,88,0.00,,,0.02,meteohub,2013-09-16 11:08:00,
2013-09-16 06:13:00,58.5,54.9,29.56,NE,51,0.0,10.0,88,0.00,,,0.02,meteohub,2013-09-16 11:13:00,
2013-09-16 06:18:00,58.5,54.9,29.56,NE,53,5.0,9.0,88,0.00,,,0.02,meteohub,2013-09-16 11:18:00,
2013-09-16 06:23:00,58.5,54.9,29.56,ENE,73,0.0,9.0,88,0.00,,,0.02,meteohub,2013-09-16 11:23:00,
2013-09-16 06:29:00,58.5,54.9,29.56,ENE,73,6.0,8.0,88,0.00,,,0.02,meteohub,2013-09-16 11:29:00,
2013-09-16 06:34:00,58.5,54.9,29.56,East,80,0.0,9.0,88,0.00,,,0.02,meteohub,2013-09-16 11:34:00,
2013-09-16 06:39:00,58.5,54.9,29.56,ENE,61,5.0,9.0,88,0.00,,,0.02,meteohub,2013-09-16 11:39:00,
2013-09-16 06:44:00,58.5,54.9,29.56,NE,44,5.0,9.0,88,0.00,,,0.02,meteohub,2013-09-16 11:44:00,
2013-09-16 06:49:00,58.6,55.0,29.57,ENE,68,6.0,9.0,88,0.00,,,0.02,meteohub,2013-09-16 11:49:00,
2013-09-16 06:54:00,58.6,55.0,29.56,NNE,22,4.0,9.0,88,0.00,,,0.02,meteohub,2013-09-16 11:54:00,
2013-09-16 06:59:00,58.6,55.0,29.56,NE,44,0.0,9.0,88,0.00,,,0.02,meteohub,2013-09-16 11:59:00,
2013-09-16 07:04:00,58.6,55.0,29.57,NE,53,4.0,9.0,88,0.00,,,0.02,meteohub,2013-09-16 12:04:00,
2013-09-16 07:09:00,58.6,55.0,29.57,NE,38,0.0,10.0,88,0.00,,,0.02,meteohub,2013-09-16 12:09:00,
2013-09-16 07:14:00,58.6,55.0,29.57,ENE,65,6.0,10.0,88,0.00,,,0.02,meteohub,2013-09-16 12:14:00,
2013-09-16 07:19:00,58.6,55.0,29.57,NE,37,5.0,10.0,88,0.00,,,0.02,meteohub,2013-09-16 12:19:00,
2013-09-16 07:24:00,58.6,55.4,29.58,ENE,62,4.0,11.0,89,0.00,,,0.02,meteohub,2013-09-16 12:24:00,
2013-09-16 07:29:00,58.6,55.4,29.58,NE,44,7.0,11.0,89,0.00,,,0.02,meteohub,2013-09-16 12:29:00,
2013-09-16 07:34:00,58.6,55.4,29.58,ENE,59,0.0,10.0,89,0.00,,,0.02,meteohub,2013-09-16 12:34:00,
2013-09-16 07:39:00,58.5,55.2,29.58,ENE,63,4.0,10.0,89,0.00,,,0.02,meteohub,2013-09-16 12:39:00,
2013-09-16 07:44:00,58.5,55.2,29.58,ENE,65,5.0,10.0,89,0.00,,,0.02,meteohub,2013-09-16 12:44:00,
2013-09-16 07:49:00,58.5,55.2,29.59,NE,54,2.0,10.0,89,0.00,,,0.02,meteohub,2013-09-16 12:49:00,
2013-09-16 07:54:00,58.5,55.2,29.58,ENE,75,0.0,9.0,89,0.00,,,0.02,meteohub,2013-09-16 12:54:00,
2013-09-16 07:59:00,58.6,55.4,29.58,NE,53,5.0,6.0,89,0.00,,,0.02,meteohub,2013-09-16 12:59:00,
2013-09-16 08:04:00,58.6,55.4,29.58,NE,40,4.0,6.0,89,0.00,,,0.02,meteohub,2013-09-16 13:04:00,
2013-09-16 08:09:00,58.6,55.8,29.59,ENE,61,0.0,8.0,90,0.00,,,0.02,meteohub,2013-09-16 13:09:00,
2013-09-16 08:14:00,58.6,55.8,29.58,ENE,66,0.0,8.0,90,0.00,,,0.02,meteohub,2013-09-16 13:14:00,
2013-09-16 08:19:00,58.8,55.9,29.58,NNE,30,0.0,10.0,90,0.00,,,0.02,meteohub,2013-09-16 13:19:00,
2013-09-16 08:24:00,58.8,55.6,29.58,ENE,74,3.0,10.0,89,0.00,,,0.02,meteohub,2013-09-16 13:24:00,
2013-09-16 08:29:00,58.8,55.9,29.58,NE,37,0.0,10.0,90,0.00,,,0.02,meteohub,2013-09-16 13:29:00,
2013-09-16 08:34:00,58.8,55.9,29.59,NNE,32,3.0,10.0,90,0.00,,,0.02,meteohub,2013-09-16 13:34:00,
2013-09-16 08:39:00,59.0,56.1,29.59,NNE,31,0.0,10.0,90,0.00,,,0.02,meteohub,2013-09-16 13:39:00,
2013-09-16 08:44:00,59.2,56.3,29.59,NE,54,5.0,10.0,90,0.00,,,0.02,meteohub,2013-09-16 13:44:00,
2013-09-16 08:49:00,59.2,56.3,29.59,ENE,59,5.0,10.0,90,0.00,,,0.02,meteohub,2013-09-16 13:49:00,
2013-09-16 08:54:00,59.2,56.3,29.60,East,90,3.0,9.0,90,0.00,,,0.02,meteohub,2013-09-16 13:54:00,
2013-09-16 08:59:00,59.2,56.3,29.60,ENE,69,0.0,9.0,90,0.00,,,0.02,meteohub,2013-09-16 13:59:00,
2013-09-16 09:04:00,59.4,56.5,29.60,East,95,2.0,11.0,90,0.00,,,0.02,meteohub,2013-09-16 14:04:00,
2013-09-16 09:09:00,59.4,56.5,29.60,East,90,3.0,11.0,90,0.00,,,0.02,meteohub,2013-09-16 14:09:00,
2013-09-16 09:14:00,59.4,56.5,29.60,ENE,73,0.0,11.0,90,0.00,,,0.02,meteohub,2013-09-16 14:14:00,
2013-09-16 09:19:00,59.5,56.7,29.60,ENE,75,1.0,8.0,90,0.00,,,0.02,meteohub,2013-09-16 14:19:00,
2013-09-16 09:24:00,59.5,56.7,29.61,East,91,4.0,6.0,90,0.00,,,0.02,meteohub,2013-09-16 14:24:00,
2013-09-16 09:29:00,59.7,56.5,29.61,ESE,103,9.0,9.0,89,0.00,,,0.02,meteohub,2013-09-16 14:29:00,
2013-09-16 09:34:00,59.9,56.7,29.61,ESE,108,2.0,9.0,89,0.00,,,0.02,meteohub,2013-09-16 14:34:00,
2013-09-16 09:39:00,59.9,56.7,29.61,SE,131,6.0,9.0,89,0.00,,,0.02,meteohub,2013-09-16 14:39:00,
2013-09-16 09:44:00,60.1,56.8,29.61,East,85,3.0,9.0,89,0.00,,,0.02,meteohub,2013-09-16 14:44:00,
2013-09-16 09:49:00,60.3,57.0,29.61,ENE,60,4.0,6.0,89,0.00,,,0.02,meteohub,2013-09-16 14:49:00,
2013-09-16 09:54:00,60.4,56.8,29.61,NE,41,0.0,6.0,88,0.00,,,0.02,meteohub,2013-09-16 14:54:00,
2013-09-16 09:59:00,60.6,57.0,29.62,NE,40,0.0,9.0,88,0.00,,,0.02,meteohub,2013-09-16 14:59:00,
2013-09-16 10:04:00,61.0,57.0,29.62,ENE,59,1.0,9.0,87,0.00,,,0.02,meteohub,2013-09-16 15:04:00,
2013-09-16 10:09:00,61.0,56.8,29.62,NE,56,3.0,6.0,86,0.00,,,0.02,meteohub,2013-09-16 15:09:00,
2013-09-16 10:14:00,61.0,56.8,29.62,NE,51,1.0,11.0,86,0.00,,,0.02,meteohub,2013-09-16 15:14:00,
2013-09-16 10:19:00,61.0,56.8,29.63,ENE,59,4.0,11.0,86,0.00,,,0.02,meteohub,2013-09-16 15:19:00,
2013-09-16 10:24:00,61.0,56.8,29.63,ENE,65,2.0,11.0,86,0.00,,,0.02,meteohub,2013-09-16 15:24:00,
2013-09-16 10:29:00,61.0,56.8,29.63,East,90,2.0,8.0,86,0.00,,,0.02,meteohub,2013-09-16 15:29:00,
2013-09-16 10:34:00,61.2,57.0,29.63,East,93,2.0,8.0,86,0.00,,,0.02,meteohub,2013-09-16 15:34:00,
2013-09-16 10:39:00,61.3,57.2,29.63,East,87,3.0,7.0,86,0.00,,,0.02,meteohub,2013-09-16 15:39:00,
2013-09-16 10:44:00,61.3,57.2,29.63,ESE,113,0.0,8.0,86,0.00,,,0.02,meteohub,2013-09-16 15:44:00,
2013-09-16 10:49:00,61.5,57.0,29.63,ESE,113,2.0,8.0,85,0.00,,,0.02,meteohub,2013-09-16 15:49:00,
2013-09-16 10:54:00,61.5,57.0,29.63,East,81,0.0,6.0,85,0.00,,,0.02,meteohub,2013-09-16 15:54:00,
2013-09-16 10:59:00,61.7,57.2,29.63,East,80,1.0,6.0,85,0.00,,,0.02,meteohub,2013-09-16 15:59:00,
2013-09-16 11:05:00,61.9,57.4,29.63,ESE,112,0.0,7.0,85,0.00,,,0.02,meteohub,2013-09-16 16:05:00,
2013-09-16 11:10:00,62.2,57.4,29.63,East,87,6.0,7.0,84,0.00,,,0.02,meteohub,2013-09-16 16:10:00,
2013-09-16 11:15:00,62.2,57.0,29.63,NE,39,1.0,7.0,83,0.00,,,0.02,meteohub,2013-09-16 16:15:00,
2013-09-16 11:20:00,62.4,56.8,29.63,East,98,0.0,11.0,82,0.00,,,0.02,meteohub,2013-09-16 16:20:00,
2013-09-16 11:25:00,62.6,57.0,29.63,ESE,117,1.0,12.0,82,0.00,,,0.02,meteohub,2013-09-16 16:25:00,
2013-09-16 11:30:00,62.8,56.8,29.63,East,94,3.0,12.0,81,0.00,,,0.02,meteohub,2013-09-16 16:30:00,
2013-09-16 11:35:00,62.8,57.2,29.63,ENE,60,1.0,12.0,82,0.00,,,0.02,meteohub,2013-09-16 16:35:00,
2013-09-16 11:40:00,63.0,57.4,29.63,SE,128,0.0,11.0,82,0.00,,,0.02,meteohub,2013-09-16 16:40:00,
2013-09-16 11:45:00,63.1,57.2,29.63,East,82,3.0,11.0,81,0.00,,,0.02,meteohub,2013-09-16 16:45:00,
2013-09-16 11:50:00,63.1,57.2,29.62,ESE,117,6.0,7.0,81,0.00,,,0.02,meteohub,2013-09-16 16:50:00,
2013-09-16 11:55:00,63.1,57.2,29.63,ENE,63,6.0,7.0,81,0.00,,,0.02,meteohub,2013-09-16 16:55:00,
2013-09-16 12:00:00,63.1,57.2,29.63,ESE,112,0.0,13.0,81,0.00,,,0.02,meteohub,2013-09-16 17:00:00,
2013-09-16 12:05:00,63.1,56.8,29.64,ESE,117,0.0,13.0,80,0.00,,,0.02,meteohub,2013-09-16 17:05:00,
2013-09-16 12:10:00,63.3,56.7,29.64,SE,126,4.0,8.0,79,0.00,,,0.02,meteohub,2013-09-16 17:10:00,
2013-09-16 12:15:00,63.5,56.8,29.64,ESE,113,0.0,12.0,79,0.00,,,0.02,meteohub,2013-09-16 17:15:00,
2013-09-16 12:20:00,63.7,57.0,29.63,East,86,4.0,12.0,79,0.00,,,0.02,meteohub,2013-09-16 17:20:00,
2013-09-16 12:25:00,63.7,56.7,29.63,East,95,0.0,7.0,78,0.00,,,0.02,meteohub,2013-09-16 17:25:00,
2013-09-16 12:30:00,63.9,56.8,29.63,ESE,111,3.0,7.0,78,0.00,,,0.02,meteohub,2013-09-16 17:30:00,
2013-09-16 12:35:00,64.0,56.7,29.64,ENE,62,1.0,11.0,77,0.00,,,0.02,meteohub,2013-09-16 17:35:00,
2013-09-16 12:40:00,64.2,57.6,29.63,NE,50,4.0,11.0,79,0.00,,,0.02,meteohub,2013-09-16 17:40:00,
2013-09-16 12:45:00,64.2,57.2,29.63,NE,52,4.0,11.0,78,0.00,,,0.02,meteohub,2013-09-16 17:45:00,
2013-09-16 12:50:00,64.2,57.6,29.63,NE,34,6.0,9.0,79,0.00,,,0.02,meteohub,2013-09-16 17:50:00,
2013-09-16 12:55:00,64.6,57.6,29.62,ENE,69,0.0,9.0,78,0.00,,,0.02,meteohub,2013-09-16 17:55:00,
2013-09-16 13:01:00,64.8,57.0,29.62,ENE,58,3.0,10.0,76,0.00,,,0.02,meteohub,2013-09-16 18:01:00,
2013-09-16 13:06:00,64.9,57.2,29.63,East,96,7.0,10.0,76,0.00,,,0.02,meteohub,2013-09-16 18:06:00,
2013-09-16 13:11:00,65.1,57.0,29.63,ENE,65,3.0,10.0,75,0.00,,,0.02,meteohub,2013-09-16 18:11:00,
2013-09-16 13:16:00,65.5,57.4,29.62,ESE,106,0.0,12.0,75,0.00,,,0.02,meteohub,2013-09-16 18:16:00,
2013-09-16 13:21:00,65.7,57.6,29.62,ENE,65,2.0,12.0,75,0.00,,,0.02,meteohub,2013-09-16 18:21:00,
2013-09-16 13:26:00,65.7,57.2,29.62,ESE,108,0.0,12.0,74,0.00,,,0.02,meteohub,2013-09-16 18:26:00,
2013-09-16 13:31:00,65.7,57.2,29.62,NNE,20,5.0,10.0,74,0.00,,,0.02,meteohub,2013-09-16 18:31:00,
2013-09-16 13:36:00,65.5,57.4,29.62,ENE,63,5.0,8.0,75,0.00,,,0.02,meteohub,2013-09-16 18:36:00,
2013-09-16 13:41:00,65.5,57.7,29.62,ESE,112,6.0,9.0,76,0.00,,,0.02,meteohub,2013-09-16 18:41:00,
2013-09-16 13:46:00,65.5,57.4,29.61,NE,49,5.0,9.0,75,0.00,,,0.02,meteohub,2013-09-16 18:46:00,
2013-09-16 13:51:00,65.7,57.2,29.61,ENE,74,1.0,9.0,74,0.00,,,0.02,meteohub,2013-09-16 18:51:00,
2013-09-16 13:56:00,65.7,57.2,29.61,East,82,0.0,9.0,74,0.00,,,0.02,meteohub,2013-09-16 18:56:00,
2013-09-16 14:01:00,66.2,57.7,29.60,ESE,113,0.0,8.0,74,0.00,,,0.02,meteohub,2013-09-16 19:01:00,
2013-09-16 14:06:00,66.6,57.6,29.60,ESE,111,7.0,10.0,73,0.00,,,0.02,meteohub,2013-09-16 19:06:00,
2013-09-16 14:11:00,66.7,57.4,29.60,East,101,0.0,10.0,72,0.00,,,0.02,meteohub,2013-09-16 19:11:00,
2013-09-16 14:16:00,67.1,57.0,29.60,ESE,113,9.0,10.0,70,0.00,,,0.02,meteohub,2013-09-16 19:16:00,
2013-09-16 14:21:00,67.3,57.2,29.60,SE,135,0.0,9.0,70,0.00,,,0.02,meteohub,2013-09-16 19:21:00,
2013-09-16 14:26:00,67.5,57.0,29.60,East,79,0.0,9.0,69,0.00,,,0.02,meteohub,2013-09-16 19:26:00,
2013-09-16 14:31:00,67.6,56.7,29.60,ESE,121,7.0,9.0,68,0.00,,,0.02,meteohub,2013-09-16 19:31:00,
2013-09-16 14:36:00,68.4,57.0,29.59,East,88,0.0,10.0,67,0.00,,,0.02,meteohub,2013-09-16 19:36:00,
2013-09-16 14:41:00,68.5,56.7,29.59,SE,128,4.0,10.0,66,0.00,,,0.02,meteohub,2013-09-16 19:41:00,
2013-09-16 14:46:00,68.5,56.7,29.59,ENE,76,0.0,10.0,66,0.00,,,0.02,meteohub,2013-09-16 19:46:00,
2013-09-16 14:51:00,68.5,56.7,29.59,NE,48,4.0,8.0,66,0.00,,,0.02,meteohub,2013-09-16 19:51:00,
2013-09-16 14:56:00,68.2,56.3,29.59,ENE,61,4.0,7.0,66,0.00,,,0.02,meteohub,2013-09-16 19:56:00,
2013-09-16 15:01:00,67.8,56.5,29.59,NE,47,3.0,12.0,67,0.00,,,0.02,meteohub,2013-09-16 20:01:00,
2013-09-16 15:06:00,67.8,56.8,29.59,ENE,74,0.0,12.0,68,0.00,,,0.02,meteohub,2013-09-16 20:06:00,
2013-09-16 15:11:00,67.6,57.0,29.59,NE,42,4.0,7.0,69,0.00,,,0.02,meteohub,2013-09-16 20:11:00,
2013-09-16 15:16:00,67.6,56.7,29.58,NE,42,0.0,6.0,68,0.00,,,0.02,meteohub,2013-09-16 20:16:00,
2013-09-16 15:21:00,67.8,56.8,29.58,NE,51,1.0,6.0,68,0.00,,,0.02,meteohub,2013-09-16 20:21:00,
2013-09-16 15:26:00,68.2,56.8,29.58,ESE,105,0.0,7.0,67,0.00,,,0.02,meteohub,2013-09-16 20:26:00,
2013-09-16 15:31:00,68.4,57.0,29.59,East,95,1.0,7.0,67,0.00,,,0.02,meteohub,2013-09-16 20:31:00,
2013-09-16 15:36:00,68.5,57.6,29.58,NNE,13,0.0,7.0,68,0.00,,,0.02,meteohub,2013-09-16 20:36:00,
2013-09-16 15:41:00,68.5,57.2,29.58,East,85,0.0,7.0,67,0.00,,,0.02,meteohub,2013-09-16 20:41:00,
2013-09-16 15:46:00,68.9,56.7,29.58,East,89,0.0,6.0,65,0.00,,,0.02,meteohub,2013-09-16 20:46:00,
2013-09-16 15:51:00,69.4,57.6,29.58,SE,128,0.0,7.0,66,0.00,,,0.02,meteohub,2013-09-16 20:51:00,
2013-09-16 15:56:00,70.0,57.2,29.58,East,98,5.0,7.0,64,0.00,,,0.02,meteohub,2013-09-16 20:56:00,
2013-09-16 16:01:00,69.8,56.7,29.57,ESE,123,4.0,7.0,63,0.00,,,0.02,meteohub,2013-09-16 21:01:00,
2013-09-16 16:06:00,69.6,56.5,29.57,ENE,65,2.0,7.0,63,0.00,,,0.02,meteohub,2013-09-16 21:06:00,
2013-09-16 16:11:00,69.4,56.3,29.57,East,81,0.0,7.0,63,0.00,,,0.02,meteohub,2013-09-16 21:11:00,
2013-09-16 16:16:00,69.3,56.1,29.57,East,98,0.0,7.0,63,0.00,,,0.02,meteohub,2013-09-16 21:16:00,
2013-09-16 16:22:00,69.1,55.6,29.57,ESE,105,5.0,7.0,62,0.00,,,0.02,meteohub,2013-09-16 21:22:00,
2013-09-16 16:27:00,68.7,55.2,29.57,East,90,2.0,9.0,62,0.00,,,0.02,meteohub,2013-09-16 21:27:00,
2013-09-16 16:32:00,68.7,55.2,29.57,SE,138,6.0,9.0,62,0.00,,,0.02,meteohub,2013-09-16 21:32:00,
2013-09-16 16:37:00,68.5,55.4,29.57,ESE,116,6.0,11.0,63,0.00,,,0.02,meteohub,2013-09-16 21:37:00,
2013-09-16 16:42:00,68.9,55.4,29.57,SE,136,3.0,11.0,62,0.00,,,0.02,meteohub,2013-09-16 21:42:00,
2013-09-16 16:47:00,69.4,55.4,29.57,SE,126,3.0,11.0,61,0.00,,,0.02,meteohub,2013-09-16 21:47:00,
2013-09-16 16:52:00,69.6,55.0,29.56,SE,133,11.0,11.0,60,0.00,,,0.02,meteohub,2013-09-16 21:52:00,
2013-09-16 16:57:00,69.6,55.6,29.56,East,87,2.0,13.0,61,0.00,,,0.02,meteohub,2013-09-16 21:57:00,
2013-09-16 17:02:00,69.6,55.0,29.56,East,83,3.0,13.0,60,0.00,,,0.02,meteohub,2013-09-16 22:02:00,
2013-09-16 17:07:00,69.6,54.7,29.56,East,96,7.0,13.0,59,0.00,,,0.02,meteohub,2013-09-16 22:07:00,
2013-09-16 17:12:00,69.6,54.7,29.56,East,93,6.0,11.0,59,0.00,,,0.02,meteohub,2013-09-16 22:12:00,
2013-09-16 17:17:00,69.4,54.9,29.56,East,97,2.0,11.0,60,0.00,,,0.02,meteohub,2013-09-16 22:17:00,
2013-09-16 17:22:00,69.3,54.9,29.56,East,96,2.0,11.0,60,0.00,,,0.02,meteohub,2013-09-16 22:22:00,
2013-09-16 17:27:00,69.3,54.9,29.56,SSE,155,0.0,10.0,60,0.00,,,0.02,meteohub,2013-09-16 22:27:00,
2013-09-16 17:32:00,69.4,55.4,29.56,East,90,0.0,10.0,61,0.00,,,0.02,meteohub,2013-09-16 22:32:00,
2013-09-16 17:37:00,69.4,54.9,29.56,East,86,0.0,10.0,60,0.00,,,0.02,meteohub,2013-09-16 22:37:00,
2013-09-16 17:42:00,69.4,54.9,29.56,ESE,114,5.0,7.0,60,0.00,,,0.02,meteohub,2013-09-16 22:42:00,
2013-09-16 17:47:00,69.3,54.9,29.56,SE,133,5.0,12.0,60,0.00,,,0.02,meteohub,2013-09-16 22:47:00,
2013-09-16 17:52:00,68.9,54.9,29.56,ESE,119,2.0,12.0,61,0.00,,,0.02,meteohub,2013-09-16 22:52:00,
2013-09-16 17:57:00,68.5,54.5,29.56,ESE,104,0.0,12.0,61,0.00,,,0.02,meteohub,2013-09-16 22:57:00,
2013-09-16 18:02:00,68.4,54.9,29.56,East,89,2.0,11.0,62,0.00,,,0.02,meteohub,2013-09-16 23:02:00,
2013-09-16 18:07:00,68.2,54.1,29.56,East,84,0.0,11.0,61,0.00,,,0.02,meteohub,2013-09-16 23:07:00,
2013-09-16 18:12:00,68.0,54.5,29.56,ENE,72,0.0,11.0,62,0.00,,,0.02,meteohub,2013-09-16 23:12:00,
2013-09-16 18:17:00,67.8,54.3,29.55,East,81,0.0,7.0,62,0.00,,,0.02,meteohub,2013-09-16 23:17:00,
2013-09-16 18:22:00,67.6,54.7,29.55,East,86,0.0,5.0,63,0.00,,,0.02,meteohub,2013-09-16 23:22:00,
2013-09-16 18:27:00,67.5,54.9,29.55,SE,134,0.0,4.0,64,0.00,,,0.02,meteohub,2013-09-16 23:27:00,
2013-09-16 18:32:00,67.3,54.7,29.55,ENE,71,2.0,6.0,64,0.00,,,0.02,meteohub,2013-09-16 23:32:00,
2013-09-16 18:37:00,66.9,54.3,29.55,ESE,103,0.0,6.0,64,0.00,,,0.02,meteohub,2013-09-16 23:37:00,
2013-09-16 18:42:00,66.7,54.7,29.55,ESE,103,0.0,6.0,65,0.00,,,0.02,meteohub,2013-09-16 23:42:00,
2013-09-16 18:47:00,66.6,54.5,29.55,SE,134,0.0,6.0,65,0.00,,,0.02,meteohub,2013-09-16 23:47:00,
2013-09-16 18:52:00,66.2,54.1,29.55,SE,134,0.0,5.0,65,0.00,,,0.02,meteohub,2013-09-16 23:52:00,
2013-09-16 18:57:00,66.0,54.3,29.54,SE,134,0.0,5.0,66,0.00,,,0.02,meteohub,2013-09-16 23:57:00,
2013-09-16 19:03:00,65.8,54.5,29.54,SE,133,0.0,5.0,67,0.00,,,0.02,meteohub,2013-09-17 00:03:00,
2013-09-16 19:08:00,65.7,54.3,29.55,SE,134,0.0,2.0,67,0.00,,,0.00,meteohub,2013-09-17 00:08:00,
2013-09-16 19:13:00,65.5,54.3,29.55,SE,134,0.0,0.0,67,0.00,,,0.00,meteohub,2013-09-17 00:13:00,
2013-09-16 19:18:00,65.3,54.5,29.54,SE,134,0.0,0.0,68,0.00,,,0.00,meteohub,2013-09-17 00:18:00,
2013-09-16 19:23:00,65.1,54.7,29.54,SE,134,0.0,0.0,69,0.00,,,0.00,meteohub,2013-09-17 00:23:00,
2013-09-16 19:28:00,64.8,54.3,29.54,SE,134,0.0,0.0,69,0.00,,,0.00,meteohub,2013-09-17 00:28:00,
2013-09-16 19:33:00,64.8,54.3,29.54,SE,134,0.0,0.0,69,0.00,,,0.00,meteohub,2013-09-17 00:33:00,
2013-09-16 19:38:00,64.6,54.5,29.54,SE,134,0.0,0.0,70,0.00,,,0.00,meteohub,2013-09-17 00:38:00,
2013-09-16 19:43:00,64.4,54.3,29.54,SE,134,0.0,0.0,70,0.00,,,0.00,meteohub,2013-09-17 00:43:00,
2013-09-16 19:48:00,64.0,54.5,29.54,SE,134,0.0,0.0,71,0.00,,,0.00,meteohub,2013-09-17 00:48:00,
2013-09-16 19:53:00,64.0,54.5,29.54,SE,134,0.0,0.0,71,0.00,,,0.00,meteohub,2013-09-17 00:53:00,
2013-09-16 19:58:00,63.9,54.7,29.55,SE,134,0.0,0.0,72,0.00,,,0.00,meteohub,2013-09-17 00:58:00,
2013-09-16 20:03:00,63.7,54.5,29.54,SE,134,0.0,0.0,72,0.00,,,0.00,meteohub,2013-09-17 01:03:00,
2013-09-16 20:08:00,63.3,54.5,29.55,SE,134,0.0,0.0,73,0.00,,,0.00,meteohub,2013-09-17 01:08:00,
2013-09-16 20:13:00,63.1,54.3,29.55,SE,134,0.0,0.0,73,0.00,,,0.00,meteohub,2013-09-17 01:13:00,
2013-09-16 20:18:00,63.1,54.3,29.55,SE,134,0.0,0.0,73,0.00,,,0.00,meteohub,2013-09-17 01:18:00,
2013-09-16 20:23:00,63.0,54.5,29.55,SE,134,0.0,0.0,74,0.00,,,0.00,meteohub,2013-09-17 01:23:00,
2013-09-16 20:28:00,62.8,54.3,29.55,SE,134,0.0,0.0,74,0.00,,,0.00,meteohub,2013-09-17 01:28:00,
2013-09-16 20:33:00,62.6,54.1,29.55,SE,134,0.0,0.0,74,0.00,,,0.00,meteohub,2013-09-17 01:33:00,
2013-09-16 20:38:00,62.4,54.3,29.55,SE,134,0.0,0.0,75,0.00,,,0.00,meteohub,2013-09-17 01:38:00,
2013-09-16 20:43:00,62.2,54.5,29.55,SE,134,0.0,0.0,76,0.00,,,0.00,meteohub,2013-09-17 01:43:00,
2013-09-16 20:48:00,62.1,54.3,29.55,SE,134,0.0,0.0,76,0.00,,,0.00,meteohub,2013-09-17 01:48:00,
2013-09-16 20:53:00,61.9,54.3,29.55,SE,134,0.0,0.0,76,0.00,,,0.00,meteohub,2013-09-17 01:53:00,
2013-09-16 20:58:00,61.9,54.7,29.55,SE,134,0.0,0.0,77,0.00,,,0.00,meteohub,2013-09-17 01:58:00,
2013-09-16 21:03:00,61.9,54.7,29.56,SE,134,0.0,0.0,77,0.00,,,0.00,meteohub,2013-09-17 02:03:00,
2013-09-16 21:08:00,61.5,54.7,29.56,SE,134,0.0,0.0,78,0.00,,,0.00,meteohub,2013-09-17 02:08:00,
2013-09-16 21:13:00,61.5,54.7,29.56,SE,134,0.0,0.0,78,0.00,,,0.00,meteohub,2013-09-17 02:13:00,
2013-09-16 21:18:00,61.3,54.5,29.56,SE,134,0.0,0.0,78,0.00,,,0.00,meteohub,2013-09-17 02:18:00,
2013-09-16 21:23:00,61.2,54.7,29.56,SE,134,0.0,0.0,79,0.00,,,0.00,meteohub,2013-09-17 02:23:00,
2013-09-16 21:28:00,61.2,54.7,29.56,SE,134,0.0,0.0,79,0.00,,,0.00,meteohub,2013-09-17 02:28:00,
2013-09-16 21:33:00,61.0,54.5,29.56,SE,134,0.0,0.0,79,0.00,,,0.00,meteohub,2013-09-17 02:33:00,
2013-09-16 21:38:00,60.6,54.5,29.56,SE,134,0.0,0.0,80,0.00,,,0.00,meteohub,2013-09-17 02:38:00,
2013-09-16 21:43:00,60.6,54.5,29.56,SE,134,0.0,0.0,80,0.00,,,0.00,meteohub,2013-09-17 02:43:00,
2013-09-16 21:48:00,60.4,54.3,29.56,SE,134,0.0,0.0,80,0.00,,,0.00,meteohub,2013-09-17 02:48:00,
2013-09-16 21:53:00,60.4,54.3,29.56,SE,134,0.0,0.0,80,0.00,,,0.00,meteohub,2013-09-17 02:53:00,
2013-09-16 21:58:00,60.3,54.1,29.56,SE,134,0.0,0.0,80,0.00,,,0.00,meteohub,2013-09-17 02:58:00,
2013-09-16 22:03:00,60.3,54.3,29.56,SE,134,0.0,0.0,81,0.00,,,0.00,meteohub,2013-09-17 03:03:00,
2013-09-16 22:08:00,60.3,54.3,29.56,SE,134,0.0,0.0,81,0.00,,,0.00,meteohub,2013-09-17 03:08:00,
2013-09-16 22:13:00,60.1,54.5,29.56,SE,134,0.0,0.0,82,0.00,,,0.00,meteohub,2013-09-17 03:13:00,
2013-09-16 22:18:00,59.9,54.3,29.56,SE,134,0.0,0.0,82,0.00,,,0.00,meteohub,2013-09-17 03:18:00,
2013-09-16 22:23:00,59.7,54.1,29.56,SE,134,0.0,0.0,82,0.00,,,0.00,meteohub,2013-09-17 03:23:00,
2013-09-16 22:29:00,59.7,54.1,29.57,SE,134,0.0,0.0,82,0.00,,,0.00,meteohub,2013-09-17 03:29:00,
2013-09-16 22:34:00,59.7,54.5,29.57,SE,133,0.0,0.0,83,0.00,,,0.00,meteohub,2013-09-17 03:34:00,
2013-09-16 22:39:00,59.5,54.3,29.57,SE,134,0.0,0.0,83,0.00,,,0.00,meteohub,2013-09-17 03:39:00,
2013-09-16 22:44:00,59.5,54.3,29.57,SE,134,0.0,0.0,83,0.00,,,0.00,meteohub,2013-09-17 03:44:00,
2013-09-16 22:49:00,59.5,54.3,29.57,SE,133,0.0,0.0,83,0.00,,,0.00,meteohub,2013-09-17 03:49:00,
2013-09-16 22:54:00,59.5,54.3,29.57,SE,133,0.0,0.0,83,0.00,,,0.00,meteohub,2013-09-17 03:54:00,
2013-09-16 22:59:00,59.4,54.1,29.57,SE,134,0.0,0.0,83,0.00,,,0.00,meteohub,2013-09-17 03:59:00,
2013-09-16 23:01:00,59.4,54.1,29.57,SE,134,0.0,0.0,83,0.00,,,0.00,meteohub,2013-09-17 04:01:00,
2013-09-16 23:02:00,59.4,54.1,29.57,SE,133,0.0,0.0,83,0.00,,,0.00,meteohub,2013-09-17 04:02:00,
2013-09-16 23:03:00,59.4,54.1,29.57,SE,134,0.0,0.0,83,0.00,,,0.00,meteohub,2013-09-17 04:03:00,
2013-09-16 23:08:00,59.4,54.1,29.57,SE,134,0.0,0.0,83,0.00,,,0.00,meteohub,2013-09-17 04:08:00,
2013-09-16 23:13:00,59.4,54.1,29.58,SE,134,0.0,0.0,83,0.00,,,0.00,meteohub,2013-09-17 04:13:00,
2013-09-16 23:18:00,59.2,54.3,29.58,SE,134,0.0,0.0,84,0.00,,,0.00,meteohub,2013-09-17 04:18:00,
2013-09-16 23:23:00,59.2,54.3,29.57,SE,134,0.0,0.0,84,0.00,,,0.00,meteohub,2013-09-17 04:23:00,
2013-09-16 23:28:00,59.0,54.1,29.57,SE,133,0.0,0.0,84,0.00,,,0.00,meteohub,2013-09-17 04:28:00,
2013-09-16 23:33:00,58.8,54.0,29.57,SE,134,0.0,0.0,84,0.00,,,0.00,meteohub,2013-09-17 04:33:00,
2013-09-16 23:38:00,58.8,54.0,29.57,SE,134,0.0,0.0,84,0.00,,,0.00,meteohub,2013-09-17 04:38:00,
2013-09-16 23:43:00,58.6,53.8,29.57,SE,134,0.0,0.0,84,0.00,,,0.00,meteohub,2013-09-17 04:43:00,
2013-09-16 23:48:00,58.6,53.8,29.57,SE,134,0.0,0.0,84,0.00,,,0.00,meteohub,2013-09-17 04:48:00,
2013-09-16 23:53:00,58.5,54.0,29.57,SE,134,0.0,0.0,85,0.00,,,0.00,meteohub,2013-09-17 04:53:00,
2013-09-16 23:58:00,58.5,54.0,29.57,SE,134,0.0,0.0,85,0.00,,,0.00,meteohub,2013-09-17 04:58:00,